Starlink 32523

operational
NORAD ID: 62165 Int'l Des: 2024-225 Owner: SPXS Country: US Constellation: starlink
LEOCIRCULAR

Starlink 32523について

説明を読み込み中...

リアルタイム位置

3D地球を読み込み中...

次回通過

高度履歴

Altitude vs Time

uPlot chart will show altitude changes over time

軌道要素

1 62165U 24225C 25352.44696110 .00002654 00000-0 23007-3 0 9995
2 62165 70.0030 9.3772 0002811 265.3374 94.7464 14.98336225 57708
Epoch: Dec 18, 2025 • Age: 17 hours

現在のステータス

高度 588.7 km
速度 7.57 km/s
衛星直下点 -48.19°S, 166.12°W
打ち上げ日 Nov 30, 2024
運用期間 1 years
タイプ internet

技術仕様

分類 Payload
質量 730.00 kg
乾燥質量 700.00 kg
総質量 730.00 kg
長さ 0.30 m
直径 4.10 m
スパン 29.00 m
形状 Box + pan
製造者 SPXS
バスタイプ Starlink V2M
フェーズステータス In Orbit
所有者/国 SPXS/US

大規模コンステレーション

Loading constellations...